Regional Weather Roundup
Issued by NWS

Home | Current Version | Previous Version | Text Only | Print | Product List | Glossary On
Versions: 1 2 3 4 5 6 7 8 9 10 11 12 13 14 15 16 17 18 19 20 21 22 23 24 25 26 27 28 29 30 31 32 33 34 35 36 37 38 39 40 41 42 43 44 45 46 47 48 49 50
000
ASUS43 KDTX 191010
RWRMI
MICHIGAN HOURLY REGIONAL WEATHER ROUNDUP
NATIONAL WEATHER SERVICE DETROIT/PONTIAC MI
ISSUED BY NATIONAL WEATHER SERVICE GRAND RAPIDS MI
600 AM EDT SAT AUG 19 2017

NOTE: "FAIR" INDICATES FEW OR NO CLOUDS BELOW 12,000 FEET WITH NO
SIGNIFICANT WEATHER AND/OR OBSTRUCTION TO VISIBILITY.

MIZ047>049-052>055-059>063-066>070-074>076-081>083-191100-
SOUTHEAST LOWER MICHIGAN

CITY           SKY/WX    TMP DP  RH WIND       PRES   REMARKS
ADRIAN         LGT RAIN  63  61  93 CALM      29.88F FOG
ALMA           CLOUDY    60  59  96 CALM      29.88R
ANN ARBOR      CLOUDY    60  60 100 CALM      29.87S
BAD AXE        CLOUDY    61  59  94 W3        29.84S
DETROIT CITY   MOCLDY    65  60  84 W5        29.87R
DETROIT        MOCLDY    65  61  87 SW5       29.88R
FLINT          MOCLDY    61  59  93 SW5       29.86S
GROSSE ILE     CLOUDY    65  61  85 W3        29.87R
HILLSDALE      CLOUDY    63  59  88 CALM      29.88F
HOWELL         CLOUDY    62  60  93 SW3       29.88S

CITY           SKY/WX    TMP DP  RH WIND       PRES   REMARKS
JACKSON        MOCLDY    63  60  90 CALM      29.88F
LANSING        CLOUDY    63  59  87 SW6       29.88S
MASON          CLOUDY    64  60  87 CALM      29.89S
MONROE         PTCLDY    62  61  96 NW3       29.88R
MT. CLEMENS    MOCLDY    64  62  93 SW6       29.85R
PONTIAC        CLOUDY    63  61  93 W7        29.86S
PORT HOPE        N/A     62  57  83 W6        29.81S
PORT HURON     CLOUDY    61  59  94 SW3       29.86S
TRI CITIES     PTCLDY    61  61 100 W5        29.86R
YPSILANTI      MOCLDY    65  62  90 W6        29.88R
$$
MIZ043>046-050>051-056>058-064>065-071>073-077>080-191100-
SOUTHWEST LOWER MICHIGAN

CITY           SKY/WX    TMP DP  RH WIND       PRES   REMARKS
BATTLE CREEK   CLOUDY    63  61  93 CALM      29.89S
BENTON HARBOR  CLEAR     69  61  75 VRB6      29.88S
BIG RAPIDS     FOG       56  54  94 CALM      29.88R VSB 3/4
COLDWATER      CLOUDY    64  64 100 CALM      29.89R
HOLLAND        FOG       60  59  96 CALM      29.89R VSB 1/2
GRAND RAPIDS   CLOUDY    61  60  97 CALM      29.88R
KALAMAZOO      MOCLDY    64  59  83 CALM      29.89R
MARSHALL       MOCLDY    61  60  97 CALM      29.88S
MOUNT PLEASANT PTCLDY    61  58  92 W3        29.87R
MUSKEGON       PTCLDY    60  59  96 NW3       29.89R
STURGIS        MOCLDY    63  62  97 CALM      29.88R
$$
MIZ016>042-191100-
NORTHERN LOWER MICHIGAN

CITY           SKY/WX    TMP DP  RH WIND       PRES   REMARKS
ALPENA         CLOUDY    61  60  97 W7        29.80S
BEAVER ISLAND  CLOUDY    61  58  90 NW6       29.83S
BELLAIRE       CLOUDY    60  58  93 CALM      29.84R
CADILLAC       CLOUDY    59  56  89 W5        29.87R
CHARLEVOIX     MOCLDY    64  59  85 NW8       29.86S
GAYLORD        CLOUDY    59  56  89 W6        29.84R
HOUGHTON LAKE  CLOUDY    60  57  89 W7        29.86S
MANISTEE       CLOUDY    56  56 100 CALM      29.87R
OSCODA         CLOUDY    62  58  88 W7        29.81S
PELLSTON       CLOUDY    62  58  86 NW8       29.82S
TRAVERSE CITY  CLOUDY    63  59  87 CALM      29.84R
LUDINGTON      CLOUDY    58  57  98 CALM      29.88R FOG
$$
MIZ007>008-015-191100-
EASTERN UPPER MICHIGAN

CITY           SKY/WX    TMP DP  RH WIND       PRES   REMARKS
KINROSS        MOCLDY    58  57  97 NW8       29.81R
MACKINAC ISLAN CLOUDY    59  59 100 NW8       29.82R
NEWBERRY       MOCLDY    55  54  97 W3        29.82S
S. S. MARIE    CLOUDY    61  59  93 NW7       29.79S
$$
MIZ004>006-011>014-085-191100-
CENTRAL UPPER MICHIGAN

CITY           SKY/WX    TMP DP  RH WIND       PRES   REMARKS
MANISTIQUE     MOCLDY    55  49  81 CALM      29.82F
ESCANABA       MOCLDY    55  55 100 W6        29.84S
MENOMINEE      CLEAR     58  56  93 CALM      29.87R
SAWYER-GWINN   MOCLDY    54  52  95 S3        29.83S
$$
MIZ001>003-009>011-084-191100-
WESTERN UPPER MICHIGAN

CITY           SKY/WX    TMP DP  RH WIND       PRES   REMARKS
IRON MOUNTAIN  PTCLDY    57  53  86 VRB3      29.85S
HOUGHTON       CLEAR     61  59  94 W14       29.80S
COPPER HARBOR    N/A     60  57  89 CALM      29.78S
IRONWOOD       CLEAR     59  56  89 W8        29.88R
$$

ABBREVIATIONS USED IN REMARKS
   TC - TEMPERATURE IN CELSIUS
  WCI - WIND CHILL INDEX
   HX - HEAT INDEX
  VSB - VISIBILITY




USA.gov is the U.S. government's official web portal to all federal, state and local government web resources and services.